FDX20N SBGR-LPPT

Flight info

Callsign FDX20N
Flight time N/A
Altitude 29000
Route AMVUL6A NUXEL UZ23 ILPIR UZ72 EKUMU/N0503F310 UZ72 EDNES UN866 CRUDE/N0497F330 UN866 DEKON/N0496F320 UN866 AMDOL/N0489F330 UN866 TENPA/N0483F350 N866 GOMER/N0475F340 N866 BRICK/N0473F360 N866 KONBA UN866 BEXAL DCT LUVUP LUVUP2A
Aircraft MD11/H-SDE1E2E3FGHIJ2J3J4J5M1RWXY/LB1D1

Departure

Time N/A
Airport São Paulo/Guarulhos–Governor André Franco Montoro International Airport (SBGR)

Arrival

Time 2026-05-04 19:30
Airport Lisbon Humberto Delgado Airport (LPPT)
Time Latitude Longitude Altitude Speed Heading
2026-05-04 18:31 33.59505 -13.47184 34852 ft 369 kts 30°
2026-05-04 18:31 33.61494 -13.45526 34842 ft 328 kts 30°
2026-05-04 18:32 33.63294 -13.44034 34822 ft 303 kts 29°
2026-05-04 18:32 33.64979 -13.42645 34819 ft 284 kts 28°
2026-05-04 18:32 33.66543 -13.41354 34656 ft 258 kts 29°
2026-05-04 18:32 33.67822 -13.39920 31263 ft 230 kts 27°
2026-05-04 18:33 33.69586 -13.38913 24670 ft 417 kts 20°
2026-05-04 18:33 33.72000 -13.37389 25216 ft 350 kts 27°
2026-05-04 18:33 33.73823 -13.35821 25632 ft 298 kts 35°
2026-05-04 18:33 33.75311 -13.34274 25917 ft 273 kts 36°
2026-05-04 18:34 33.76742 -13.32826 26172 ft 267 kts 33°
2026-05-04 18:34 33.78302 -13.31370 25586 ft 302 kts 32°
2026-05-04 18:34 33.79985 -13.29811 25796 ft 301 kts 30°
2026-05-04 18:34 33.81678 -13.28354 26123 ft 301 kts 29°
2026-05-04 18:35 33.83417 -13.26899 26243 ft 308 kts 30°
2026-05-04 18:35 33.85201 -13.25406 26382 ft 316 kts 30°
2026-05-04 18:35 33.87031 -13.23880 26501 ft 324 kts 30°
2026-05-04 18:35 33.88915 -13.22315 26655 ft 334 kts 30°
2026-05-04 18:36 33.90852 -13.20710 26774 ft 343 kts 30°
2026-05-04 18:36 33.92847 -13.19060 26916 ft 353 kts 30°
2026-05-04 18:36 33.94901 -13.17361 27048 ft 363 kts 30°
2026-05-04 18:36 33.96979 -13.15642 27183 ft 372 kts 30°
2026-05-04 18:37 33.99139 -13.13855 27317 ft 382 kts 30°
2026-05-04 18:37 34.01358 -13.12018 27456 ft 391 kts 30°
2026-05-04 18:37 34.03628 -13.10137 27583 ft 400 kts 30°
2026-05-04 18:37 34.05944 -13.08217 27721 ft 409 kts 30°
2026-05-04 18:38 34.08312 -13.06252 27849 ft 416 kts 30°
2026-05-04 18:38 34.10715 -13.04257 27988 ft 423 kts 30°
2026-05-04 18:38 34.13164 -13.02221 28125 ft 430 kts 31°
2026-05-04 18:38 34.15648 -13.00156 28263 ft 437 kts 31°
2026-05-04 18:39 34.18169 -12.98058 28392 ft 444 kts 31°
2026-05-04 18:39 34.20739 -12.95919 28545 ft 452 kts 31°
2026-05-04 18:39 34.23352 -12.93743 28665 ft 461 kts 31°
2026-05-04 18:39 34.26015 -12.91524 28831 ft 470 kts 31°
2026-05-04 18:40 34.28734 -12.89257 28951 ft 479 kts 31°
2026-05-04 18:40 34.31506 -12.86943 29071 ft 489 kts 31°
2026-05-04 18:40 34.34330 -12.84583 29245 ft 498 kts 31°
2026-05-04 18:40 34.37184 -12.82193 29708 ft 499 kts 31°
2026-05-04 18:41 34.40040 -12.79798 30235 ft 499 kts 31°
2026-05-04 18:41 34.42893 -12.77402 30738 ft 499 kts 31°
2026-05-04 18:41 34.45741 -12.75010 31235 ft 497 kts 31°
2026-05-04 18:41 34.48580 -12.72625 31715 ft 497 kts 31°
2026-05-04 18:42 34.51418 -12.70240 32191 ft 496 kts 31°
2026-05-04 18:42 34.54248 -12.67860 32637 ft 495 kts 31°
2026-05-04 18:42 34.57075 -12.65482 33065 ft 494 kts 31°
2026-05-04 18:42 34.59864 -12.63133 33471 ft 494 kts 31°
2026-05-04 18:43 34.62687 -12.60754 33865 ft 494 kts 30°
2026-05-04 18:43 34.65509 -12.58373 34229 ft 494 kts 30°
2026-05-04 18:43 34.68334 -12.55988 34525 ft 495 kts 30°
2026-05-04 18:43 34.71162 -12.53599 34785 ft 496 kts 30°
2026-05-04 18:44 34.74009 -12.51194 34869 ft 502 kts 30°
2026-05-04 18:44 34.79816 -12.46283 34886 ft 514 kts 30°
2026-05-04 18:45 34.85721 -12.41274 34887 ft 521 kts 30°
2026-05-04 18:45 34.91688 -12.36199 34885 ft 525 kts 30°
2026-05-04 18:46 34.97679 -12.31094 34867 ft 520 kts 30°
2026-05-04 18:46 35.03498 -12.26115 34890 ft 506 kts 30°
2026-05-04 18:47 35.09206 -12.21238 34893 ft 499 kts 30°
2026-05-04 18:47 35.14890 -12.16381 34896 ft 499 kts 30°
2026-05-04 18:48 35.20568 -12.11516 34884 ft 500 kts 30°
2026-05-04 18:48 35.26244 -12.06641 34904 ft 499 kts 30°
2026-05-04 18:49 35.31930 -12.01751 34892 ft 503 kts 30°
2026-05-04 18:49 35.37615 -11.96848 34894 ft 499 kts 30°
2026-05-04 18:50 35.43288 -11.91948 34903 ft 499 kts 30°
2026-05-04 18:50 35.48954 -11.87048 34902 ft 499 kts 30°
2026-05-04 18:51 35.54617 -11.82142 34903 ft 499 kts 30°
2026-05-04 18:51 35.60276 -11.77230 34901 ft 499 kts 30°
2026-05-04 18:52 35.65921 -11.72281 34898 ft 499 kts 30°
2026-05-04 18:52 35.71547 -11.67289 34898 ft 500 kts 30°
2026-05-04 18:53 35.77172 -11.62300 34897 ft 499 kts 30°
2026-05-04 18:53 35.82785 -11.57326 34896 ft 498 kts 30°
2026-05-04 18:54 35.88355 -11.52383 34896 ft 496 kts 30°
2026-05-04 18:54 35.93948 -11.47411 34897 ft 495 kts 30°
2026-05-04 18:55 35.99654 -11.42706 34895 ft 491 kts 25°
2026-05-04 18:55 36.08523 -11.36491 34892 ft 488 kts 23°
2026-05-04 18:56 36.14431 -11.32366 34896 ft 488 kts 23°
2026-05-04 18:56 36.20322 -11.28188 34902 ft 488 kts 23°
2026-05-04 18:57 36.26201 -11.23994 34899 ft 488 kts 23°
2026-05-04 18:57 36.31090 -11.20503 34897 ft 487 kts 23°
2026-05-04 18:58 36.36966 -11.16302 34894 ft 487 kts 23°
2026-05-04 18:58 36.42842 -11.12094 34897 ft 487 kts 23°
2026-05-04 18:59 36.48721 -11.07877 34895 ft 488 kts 23°
2026-05-04 18:59 36.54598 -11.03654 34897 ft 488 kts 23°
2026-05-04 19:00 36.60468 -10.99428 34891 ft 488 kts 23°
2026-05-04 19:00 36.66343 -10.95191 34901 ft 489 kts 23°
2026-05-04 19:01 36.72209 -10.90934 34898 ft 489 kts 23°
2026-05-04 19:01 36.78070 -10.86660 34894 ft 489 kts 23°
2026-05-04 19:02 36.83933 -10.82389 34893 ft 489 kts 23°
2026-05-04 19:02 36.89799 -10.78116 34894 ft 489 kts 23°
2026-05-04 19:03 36.95663 -10.73838 34890 ft 488 kts 23°
2026-05-04 19:03 37.01524 -10.69552 34891 ft 488 kts 23°
2026-05-04 19:04 37.07387 -10.65258 34891 ft 491 kts 24°
2026-05-04 19:04 37.13365 -10.60883 34885 ft 503 kts 24°
2026-05-04 19:05 37.19408 -10.56443 34870 ft 510 kts 24°
2026-05-04 19:05 37.25558 -10.51909 34249 ft 512 kts 25°
2026-05-04 19:06 37.28595 -10.49660 33476 ft 502 kts 25°
2026-05-04 19:06 37.31576 -10.47448 32779 ft 493 kts 25°
2026-05-04 19:06 37.34500 -10.45279 32126 ft 484 kts 25°
2026-05-04 19:06 37.37374 -10.43148 31502 ft 476 kts 25°
2026-05-04 19:07 37.40228 -10.41036 30884 ft 476 kts 25°
2026-05-04 19:07 37.43066 -10.38914 30246 ft 471 kts 25°
2026-05-04 19:07 37.45856 -10.36806 29531 ft 464 kts 25°
2026-05-04 19:07 37.48591 -10.34733 28877 ft 456 kts 25°
2026-05-04 19:08 37.51298 -10.32684 28245 ft 451 kts 25°
2026-05-04 19:08 37.53976 -10.30661 27643 ft 446 kts 25°
2026-05-04 19:08 37.56628 -10.28657 27045 ft 442 kts 25°
2026-05-04 19:08 37.59248 -10.26678 26444 ft 437 kts 25°
2026-05-04 19:09 37.61841 -10.24718 25866 ft 432 kts 25°
2026-05-04 19:09 37.64405 -10.22778 25285 ft 428 kts 25°
2026-05-04 19:09 37.66936 -10.20861 25053 ft 422 kts 25°
2026-05-04 19:09 37.69435 -10.18843 24517 ft 442 kts 30°
2026-05-04 19:10 37.71997 -10.16416 23711 ft 475 kts 32°
2026-05-04 19:10 37.74641 -10.13843 22714 ft 478 kts 33°
2026-05-04 19:10 37.77250 -10.11263 21748 ft 474 kts 33°
2026-05-04 19:10 37.79826 -10.08699 20822 ft 468 kts 33°
2026-05-04 19:11 37.82363 -10.06173 19932 ft 461 kts 33°
2026-05-04 19:11 37.84864 -10.03686 19078 ft 454 kts 33°
2026-05-04 19:11 37.87334 -10.01235 18238 ft 448 kts 33°
2026-05-04 19:11 37.89774 -9.98817 17454 ft 442 kts 33°
2026-05-04 19:12 37.92181 -9.96431 16793 ft 437 kts 33°
2026-05-04 19:12 37.96914 -9.91736 15575 ft 427 kts 34°
2026-05-04 19:12 37.99241 -9.89425 14984 ft 423 kts 34°
2026-05-04 19:13 38.01546 -9.87132 14443 ft 419 kts 34°
2026-05-04 19:13 38.03827 -9.84862 13874 ft 415 kts 34°
2026-05-04 19:13 38.06083 -9.82616 13267 ft 410 kts 34°
2026-05-04 19:13 38.08318 -9.80388 12702 ft 406 kts 34°
2026-05-04 19:14 38.10528 -9.78183 12145 ft 402 kts 35°
2026-05-04 19:14 38.12652 -9.76062 11634 ft 395 kts 35°
2026-05-04 19:14 38.14767 -9.73944 11238 ft 378 kts 35°
2026-05-04 19:14 38.16800 -9.71905 10724 ft 368 kts 35°
2026-05-04 19:15 38.18707 -9.69988 10566 ft 332 kts 35°
2026-05-04 19:15 38.20430 -9.68251 10440 ft 302 kts 35°
2026-05-04 19:15 38.22089 -9.66588 10358 ft 311 kts 34°
2026-05-04 19:15 38.23756 -9.64924 10253 ft 304 kts 34°
2026-05-04 19:16 38.25373 -9.63304 10109 ft 289 kts 34°
2026-05-04 19:16 38.26950 -9.61722 10005 ft 287 kts 34°
2026-05-04 19:16 38.28495 -9.60172 9867 ft 287 kts 34°
2026-05-04 19:16 38.30120 -9.58545 9048 ft 297 kts 34°
2026-05-04 19:17 38.31720 -9.56941 8349 ft 295 kts 35°
2026-05-04 19:17 38.32781 -9.55874 7914 ft 293 kts 35°
2026-05-04 19:18 38.34019 -9.54611 7628 ft 292 kts 36°
2026-05-04 19:18 38.35576 -9.52958 7363 ft 290 kts 37°
2026-05-04 19:19 38.37110 -9.51302 7092 ft 288 kts 37°
2026-05-04 19:19 38.38639 -9.49717 6963 ft 277 kts 31°
2026-05-04 19:19 38.40349 -9.48787 6818 ft 262 kts
2026-05-04 19:19 38.42082 -9.49094 6696 ft 246 kts 335°
2026-05-04 19:20 38.43276 -9.49934 6593 ft 231 kts 326°
2026-05-04 19:20 38.44596 -9.51050 6258 ft 226 kts 327°
2026-05-04 19:20 38.46019 -9.51861 5756 ft 224 kts 345°
2026-05-04 19:20 38.47562 -9.51866 5263 ft 221 kts 12°
2026-05-04 19:21 38.48862 -9.50970 5099 ft 213 kts 39°
2026-05-04 19:21 38.49716 -9.49412 4971 ft 217 kts 60°
2026-05-04 19:21 38.50335 -9.47653 4836 ft 218 kts 62°
2026-05-04 19:21 38.50954 -9.45893 4697 ft 216 kts 61°
2026-05-04 19:22 38.51587 -9.44149 4560 ft 216 kts 60°
2026-05-04 19:22 38.52223 -9.42421 4401 ft 211 kts 60°
2026-05-04 19:22 38.52822 -9.40796 4226 ft 194 kts 59°
2026-05-04 19:22 38.53398 -9.39258 4054 ft 192 kts 59°
2026-05-04 19:23 38.53979 -9.37724 3905 ft 192 kts 59°
2026-05-04 19:23 38.54562 -9.36192 3847 ft 191 kts 59°
2026-05-04 19:23 38.55143 -9.34664 3845 ft 191 kts 59°
2026-05-04 19:23 38.55728 -9.33133 3839 ft 192 kts 59°
2026-05-04 19:24 38.56303 -9.31625 3843 ft 191 kts 58°
2026-05-04 19:24 38.56887 -9.30099 3844 ft 192 kts 58°
2026-05-04 19:24 38.57473 -9.28567 3830 ft 192 kts 59°
2026-05-04 19:24 38.58060 -9.27034 3824 ft 192 kts 58°
2026-05-04 19:25 38.58645 -9.25508 3820 ft 187 kts 59°
2026-05-04 19:25 38.59325 -9.24158 3794 ft 175 kts 35°
2026-05-04 19:25 38.60346 -9.23421 3847 ft 170 kts 18°
2026-05-04 19:25 38.61427 -9.22796 3625 ft 168 kts 21°
2026-05-04 19:26 38.62493 -9.22136 3401 ft 170 kts 19°
2026-05-04 19:26 38.63561 -9.21513 3180 ft 168 kts 19°
2026-05-04 19:26 38.64618 -9.20915 2938 ft 164 kts 19°
2026-05-04 19:26 38.65628 -9.20349 2728 ft 156 kts 17°
2026-05-04 19:27 38.66620 -9.19807 2515 ft 154 kts 18°
2026-05-04 19:27 38.67602 -9.19275 2306 ft 153 kts 18°
2026-05-04 19:27 38.68581 -9.18746 2085 ft 153 kts 17°
2026-05-04 19:27 38.69581 -9.18209 1889 ft 156 kts 18°
2026-05-04 19:28 38.70573 -9.17672 1669 ft 154 kts 18°
2026-05-04 19:28 38.71561 -9.17135 1468 ft 153 kts 16°
2026-05-04 19:28 38.72552 -9.16599 1240 ft 156 kts 18°
2026-05-04 19:28 38.73565 -9.16042 1100 ft 159 kts 20°
2026-05-04 19:29 38.74581 -9.15485 898 ft 159 kts 20°
2026-05-04 19:29 38.75599 -9.14933 633 ft 159 kts 18°
2026-05-04 19:29 38.76409 -9.14506 429 ft 153 kts 18°
2026-05-04 19:29 38.76832 -9.14287 356 ft 142 kts 19°
2026-05-04 19:30 38.77569 -9.13895 374 ft 82 kts 23°
2026-05-04 19:30 38.77944 -9.13692 376 ft 35 kts 23°
2026-05-04 19:30 38.78081 -9.13619 378 ft 19 kts 22°
2026-05-04 19:30 38.78202 -9.13555 377 ft 19 kts 24°
2026-05-04 19:31 38.78227 -9.13507 378 ft 3 kts 115°
2026-05-04 19:31 38.78205 -9.13482 375 ft 6 kts 141°
2026-05-04 19:31 38.78152 -9.13451 374 ft 11 kts 159°
2026-05-04 19:31 38.78064 -9.13428 372 ft 15 kts 169°
2026-05-04 19:32 38.77946 -9.13397 366 ft 21 kts 169°
2026-05-04 19:32 38.77786 -9.13354 361 ft 26 kts 167°
2026-05-04 19:32 38.77752 -9.13347 357 ft 0 kts 173°